Home > Weather > Liberec > Past weeks

Flag for Czech Republic Weather for the Past 2 Weeks in Liberec, Czech Republic

Now
40 °F

Overcast.


Feels Like: 36 °F
Forecast: 30 / 37 °F
Wind: 5 mph from West

Location: Liberec

Current Time: Feb 11, 2016 at 2:08:42 PM

Latest Report: Feb 11, 2016 at 1:00 PM


Visibility: 22 mi

Pressure: 29.63 "Hg

Humidity: 66%

Dew point: 29 °F

Location of LiberecLocation

Historic Weather in Liberec — Graph

°F

Liberec Temperature Yesterday

Maximum temperature yesterday: 46 °F (at 12:00 AM)
Minimum temperature yesterday: 35 °F (at 11:00 PM)
Average temperature yesterday: 39 °F

High & Low Weather Summary for the Past Weeks

 TemperatureHumidityPressure
High51 °F (Feb 2, 1:00 PM)98% (Feb 1, 7:00 AM)30.37 "Hg (Feb 1, 7:00 AM)
Low31 °F (Feb 5, 8:00 AM)51% (Feb 8, 3:00 PM)29.18 "Hg (Feb 9, 10:00 PM)
Average40 °F76%29.91 "Hg
* Reported Jan 27 1:00 PM — Feb 11 1:00 PM, Liberec, Weather by CustomWeather, © 2016

Note: Actual official high and low records may vary slightly from our data, if they occured in-between our weather recording intervals... More about our weather records

Advertising

Liberec Weather History for the Previous 24 Hours

 ConditionsComfort  
Time TempWeatherWind HumidityBarometerVisibility
1:00 PM
Thu, Feb 11
40 °FOvercast.5 mph66%29.63 "Hg22 mi
12:00 PM38 °FOvercast.6 mph67%29.63 "Hg22 mi
11:00 AM38 °FOvercast.7 mph69%29.63 "Hg22 mi
10:00 AM37 °FOvercast.7 mph74%29.62 "Hg17 mi
9:00 AM36 °FOvercast.6 mph81%29.61 "Hg16 mi
8:00 AM36 °FLight rain. Overcast.6 mph82%29.59 "Hg6 mi
7:00 AM36 °FOvercast.6 mph84%29.57 "Hg12 mi
6:00 AM36 °FChilly.6 mph85%29.55 "Hg12 mi
5:00 AM35 °FChilly.3 mph91%29.54 "Hg12 mi
4:00 AM34 °FLight rain. Overcast.3 mph91%29.50 "Hg11 mi
2:00 AM35 °FRain showers. Overcast.5 mph86%29.47 "Hg12 mi
1:00 AM35 °FLight rain. Overcast.3 mph89%29.47 "Hg12 mi
11:00 PM
Wed, Feb 10
35 °FRain showers. Overcast.2 mph89%29.44 "Hg12 mi
10:00 PM36 °FChilly.3 mph73%29.41 "Hg12 mi
9:00 PM36 °FOvercast.2 mph73%29.41 "Hg16 mi
8:00 PM36 °FOvercast.7 mph71%29.41 "Hg19 mi
7:00 PM38 °FOvercast.5 mph64%29.38 "Hg19 mi
6:00 PM39 °FChilly.6 mph59%29.38 "Hg12 mi
5:00 PM39 °FChilly.6 mph59%29.38 "Hg12 mi
4:00 PM40 °FOvercast.3 mph57%29.35 "Hg28 mi
3:00 PM40 °FOvercast.3 mph54%29.35 "Hg28 mi
2:00 PM41 °FOvercast.3 mph53%29.32 "Hg25 mi
Weather by CustomWeather, © 2016

See weather overviewHow to use our weather pages